カタログに戻る

THOR ABLESTAR DEB

運用中LEO
NORAD 178·DEBRIS·🇺🇸 United States

打ち上げ Jun 29, 1961 から Cape Canaveral Space Force Station

Loading…

次のパス (今後24時間)

TLE

最新Source: Space-Track

元期: Sep 9, 2026, 19:47 UTC

1 00178U 61015BC  26252.82432775 -.00000010  00000-0  49814-4 0  9996
2 00178  66.8652 153.7465 0085192 293.6325  65.5829 13.93078823309031

AllMySatでTHOR ABLESTAR DEBをリアルタイム追跡

Download on the App Store